When you browse on this site, cookies collect data to enhance your experience and personalize the content and advertising you see.
Visit our Privacy Policy to learn more. By continuing to use the site, you agree to this use of cookies and data.
  • In Latvia
  • List of Countries
  • For 7 days
  • Water Temperature
  • Satellite Maps
  • Weather Map
  • Weather Widgets
  • user-avatar
    Login

    Hourly Weather Poganesti

    Today, 21 April, Sunday

    Time Temperature Precipitation Wind Pressure Humidity
    00:00 +10°C° 0 mm 1 mps 765 mmHg 52%
    01:00 +10°C° 0 mm 1 mps 765 mmHg 53%
    02:00 +10°C° 0 mm 1 mps 765 mmHg 54%
    03:00 +9°C° 0 mm 1 mps 765 mmHg 55%
    04:00 +9°C° 0 mm 1 mps 764 mmHg 55%
    05:00 +9°C° 0 mm 1 mps 764 mmHg 56%
    06:00 +10°C° 0 mm 1 mps 764 mmHg 53%
    07:00 +11°C° 0 mm 1 mps 764 mmHg 49%
    08:00 +13°C° 0 mm 2 mps 764 mmHg 46%
    09:00 +14°C° 0 mm 2 mps 763 mmHg 42%
    10:00 +14°C° 0 mm 3 mps 763 mmHg 38%
    11:00 +15°C° 0 mm 4 mps 763 mmHg 35%
    12:00 +17°C° 0 mm 4 mps 763 mmHg 34%
    13:00 +17°C° 0 mm 4 mps 763 mmHg 34%
    14:00 +18°C° 0 mm 4 mps 762 mmHg 34%
    15:00 +17°C° 0 mm 4 mps 762 mmHg 35%
    16:00 +17°C° 0 mm 4 mps 762 mmHg 36%
    17:00 +17°C° 0 mm 4 mps 762 mmHg 38%
    18:00 +14°C° 0 mm 5 mps 762 mmHg 42%
    19:00 +13°C° 0 mm 5 mps 762 mmHg 46%
    20:00 +12°C° 0 mm 5 mps 762 mmHg 49%
    21:00 +10°C° 0 mm 5 mps 762 mmHg 48%
    22:00 +9°C° 0 mm 5 mps 763 mmHg 47%
    23:00 +9°C° 0 mm 6 mps 763 mmHg 46%

    Tomorrow, 22 April, Monday

    Time Temperature Precipitation Wind Pressure Humidity
    00:00 +8°C° 0 mm 5 mps 763 mmHg 47%
    01:00 +8°C° 0 mm 4 mps 763 mmHg 48%
    02:00 +8°C° 0 mm 3 mps 763 mmHg 49%
    03:00 +8°C° 0 mm 3 mps 763 mmHg 51%
    04:00 +7°C° 0 mm 3 mps 763 mmHg 53%
    05:00 +7°C° 0 mm 3 mps 763 mmHg 55%
    06:00 +8°C° 0 mm 3 mps 763 mmHg 54%
    07:00 +9°C° 0 mm 3 mps 764 mmHg 52%
    08:00 +8°C° 0 mm 4 mps 764 mmHg 50%
    09:00 +10°C° 0 mm 4 mps 764 mmHg 47%
    10:00 +10°C° 0 mm 5 mps 765 mmHg 44%
    11:00 +12°C° 0 mm 5 mps 765 mmHg 40%
    12:00 +13°C° 0 mm 5 mps 765 mmHg 40%
    13:00 +13°C° 0 mm 4 mps 765 mmHg 40%
    14:00 +14°C° 0 mm 4 mps 765 mmHg 39%
    15:00 +14°C° 0 mm 4 mps 765 mmHg 39%
    16:00 +14°C° 0 mm 4 mps 765 mmHg 39%
    17:00 +14°C° 0 mm 3 mps 765 mmHg 39%
    18:00 +13°C° 0 mm 3 mps 765 mmHg 43%
    19:00 +12°C° 0 mm 3 mps 765 mmHg 46%
    20:00 +11°C° 0 mm 3 mps 766 mmHg 50%
    21:00 +10°C° 0 mm 3 mps 766 mmHg 52%
    22:00 +9°C° 0 mm 2 mps 766 mmHg 53%
    23:00 +8°C° 0 mm 2 mps 767 mmHg 55%

    Day after tomorrow, 23 April, Tuesday

    Time Temperature Precipitation Wind Pressure Humidity
    00:00 +7°C° 0 mm 2 mps 767 mmHg 55%
    01:00 +7°C° 0 mm 2 mps 767 mmHg 55%
    02:00 +8°C° 0 mm 1 mps 766 mmHg 56%
    03:00 +8°C° 0 mm 1 mps 767 mmHg 56%
    04:00 +7°C° 0 mm 1 mps 767 mmHg 56%
    05:00 +7°C° 0 mm 1 mps 767 mmHg 56%
    06:00 +8°C° 0 mm 2 mps 767 mmHg 52%
    07:00 +10°C° 0 mm 2 mps 767 mmHg 48%
    08:00 +11°C° 0 mm 3 mps 767 mmHg 45%
    09:00 +13°C° 0 mm 4 mps 767 mmHg 43%
    10:00 +14°C° 0 mm 5 mps 767 mmHg 42%
    11:00 +15°C° 0 mm 6 mps 767 mmHg 40%
    12:00 +16°C° 0 mm 6 mps 767 mmHg 41%
    13:00 +16°C° 0 mm 7 mps 766 mmHg 42%
    14:00 +17°C° 0 mm 7 mps 766 mmHg 43%
    15:00 +16°C° 0 mm 7 mps 766 mmHg 46%
    16:00 +16°C° 0 mm 7 mps 766 mmHg 48%
    17:00 +15°C° 0 mm 7 mps 766 mmHg 50%
    18:00 +14°C° 0 mm 6 mps 766 mmHg 54%
    19:00 +13°C° 0 mm 5 mps 766 mmHg 58%
    20:00 +10°C° 0 mm 5 mps 766 mmHg 62%
    21:00 +10°C° 0 mm 4 mps 767 mmHg 66%
    22:00 +8°C° 0 mm 4 mps 767 mmHg 69%
    23:00 +8°C° 0 mm 4 mps 767 mmHg 73%

    24 April, Wednesday

    Time Temperature Precipitation Wind Pressure Humidity
    00:00 +9°C° 0 mm 3 mps 767 mmHg 72%
    01:00 +9°C° 0 mm 3 mps 767 mmHg 72%
    02:00 +9°C° 0 mm 3 mps 767 mmHg 71%
    03:00 +9°C° 0 mm 3 mps 767 mmHg 73%
    04:00 +9°C° 0 mm 2 mps 767 mmHg 74%
    05:00 +9°C° 0 mm 2 mps 767 mmHg 76%
    06:00 +10°C° 0 mm 3 mps 767 mmHg 72%
    07:00 +11°C° 0 mm 4 mps 768 mmHg 68%
    08:00 +12°C° 0 mm 5 mps 768 mmHg 64%
    09:00 +14°C° 0 mm 5 mps 768 mmHg 59%
    10:00 +15°C° 0 mm 5 mps 768 mmHg 54%
    11:00 +17°C° 0 mm 5 mps 768 mmHg 50%
    12:00 +17°C° 0 mm 5 mps 767 mmHg 47%
    13:00 +19°C° 0 mm 6 mps 767 mmHg 45%
    14:00 +20°C° 0 mm 6 mps 767 mmHg 43%
    15:00 +20°C° 0 mm 6 mps 767 mmHg 44%
    16:00 +19°C° 0 mm 6 mps 767 mmHg 46%
    17:00 +19°C° 0 mm 6 mps 767 mmHg 47%
    18:00 +16°C° 0 mm 6 mps 767 mmHg 52%
    19:00 +15°C° 0 mm 5 mps 767 mmHg 58%
    20:00 +13°C° 0 mm 5 mps 767 mmHg 63%
    21:00 +12°C° 0 mm 5 mps 768 mmHg 67%
    22:00 +11°C° 0 mm 4 mps 768 mmHg 72%
    23:00 +10°C° 0 mm 4 mps 768 mmHg 76%

    25 April, Thursday

    Time Temperature Precipitation Wind Pressure Humidity
    00:00 +10°C° 0 mm 4 mps 768 mmHg 79%
    01:00 +8°C° 0 mm 4 mps 768 mmHg 82%
    02:00 +9°C° 0 mm 3 mps 768 mmHg 85%
    03:00 +8°C° 0 mm 3 mps 768 mmHg 86%
    04:00 +8°C° 0 mm 3 mps 768 mmHg 87%
    05:00 +8°C° 0 mm 3 mps 768 mmHg 88%
    06:00 +10°C° 0 mm 4 mps 768 mmHg 79%
    07:00 +10°C° 0 mm 5 mps 768 mmHg 71%
    08:00 +13°C° 0 mm 6 mps 768 mmHg 62%
    09:00 +15°C° 0 mm 6 mps 768 mmHg 56%
    10:00 +16°C° 0 mm 7 mps 767 mmHg 50%
    11:00 +18°C° 0 mm 7 mps 767 mmHg 44%
    12:00 +20°C° 0 mm 7 mps 767 mmHg 43%
    13:00 +21°C° 0 mm 7 mps 767 mmHg 41%
    14:00 +21°C° 0 mm 7 mps 766 mmHg 39%
    15:00 +21°C° 0 mm 7 mps 766 mmHg 40%
    16:00 +21°C° 0 mm 7 mps 766 mmHg 41%
    17:00 +20°C° 0 mm 6 mps 765 mmHg 42%
    18:00 +19°C° 0 mm 6 mps 765 mmHg 45%
    19:00 +16°C° 0 mm 5 mps 766 mmHg 49%
    20:00 +14°C° 0 mm 5 mps 766 mmHg 53%
    21:00 +13°C° 0 mm 5 mps 766 mmHg 55%
    22:00 +12°C° 0 mm 4 mps 766 mmHg 58%
    23:00 +11°C° 0 mm 4 mps 766 mmHg 60%

    26 April, Friday

    Time Temperature Precipitation Wind Pressure Humidity
    00:00 +11°C° 0 mm 4 mps 765 mmHg 63%
    01:00 +10°C° 0 mm 4 mps 765 mmHg 65%
    02:00 +9°C° 0 mm 3 mps 765 mmHg 67%
    03:00 +9°C° 0 mm 3 mps 765 mmHg 69%
    04:00 +9°C° 0 mm 3 mps 765 mmHg 71%
    05:00 +8°C° 0 mm 3 mps 764 mmHg 72%
    06:00 +10°C° 0 mm 4 mps 764 mmHg 68%
    07:00 +12°C° 0 mm 5 mps 764 mmHg 63%
    08:00 +14°C° 0 mm 5 mps 764 mmHg 59%
    09:00 +15°C° 0 mm 6 mps 764 mmHg 54%
    10:00 +17°C° 0 mm 6 mps 764 mmHg 49%
    11:00 +20°C° 0 mm 7 mps 763 mmHg 45%
    12:00 +21°C° 0 mm 7 mps 763 mmHg 43%
    13:00 +22°C° 0 mm 7 mps 762 mmHg 42%
    14:00 +23°C° 0 mm 7 mps 762 mmHg 40%
    15:00 +22°C° 0 mm 7 mps 762 mmHg 41%
    16:00 +22°C° 0 mm 6 mps 761 mmHg 42%
    17:00 +22°C° 0 mm 6 mps 761 mmHg 43%
    18:00 +20°C° 0 mm 6 mps 761 mmHg 49%
    19:00 +19°C° 0 mm 5 mps 761 mmHg 55%
    20:00 +17°C° 0 mm 4 mps 761 mmHg 61%
    21:00 +15°C° 0 mm 4 mps 761 mmHg 65%
    22:00 +14°C° 0 mm 4 mps 761 mmHg 69%
    23:00 +13°C° 0 mm 4 mps 761 mmHg 72%
    Show more